Location: São Paulo
(23.5507°S, 46.6334°W)
Time: 07:52:36
(UTC-03:00)

Vanguard 3 - Pass Details

Date: 25 February 2026
Orbit: 507 x 3205 km, 33.4° (Epoch: 7 March)

Event Time Altitude Azimuth Distance (km) Brightness Sun altitude
Exits shadow 04:41:01 12° 245° (WSW) 3,247 9.8 -18.3°
Maximum altitude 04:49:22 52° 171° (S) 2,309 9.5 -16.5°
Drops below altitude 10° 05:04:34 10° 97° (E) 5,601 12.8 -13.2°
Sets 05:09:52 0° 92° (E) 6,892 13.7 -12.0°
